Location: Goudex
(43.3760°N, 0.9543°E)
Time: 04:02:00
(UTC+00:00)

STARLINK-24 - Pass Details

Date: 20 November 2019
Orbit: 529 x 531 km, 53.0° (Epoch: 13 December)

Event Time Altitude Azimuth Distance (km) Brightness Sun altitude
Exits shadow 05:08:50 46° 310° (NW) 730 3.8 -19.2°
Maximum altitude 05:09:16 49° 332° (NNW) 709 3.9 -19.1°
Drops below altitude 10° 05:13:19 10° 48° (NE) 1,841 6.8 -18.4°
Sets 05:15:40 0° 54° (NE) 2,759 7.9 -18.0°
